Regional Weather Roundup
Issued by NWS Newport/Morehead, NC

Current Version | Previous Version | Text Only | Print | Product List | Glossary Off
Versions: 1 2 3 4 5 6 7 8 9 10 11 12 13 14 15 16 17 18 19 20 21 22 23 24 25 26 27 28 29 30 31 32 33 34 35 36 37 38 39 40 41 42 43 44 45 46 47 48 49 50
805 ASUS42 KMHX 290013 RWRMHX WEATHER ROUNDUP FOR EASTERN NORTH CAROLINA NATIONAL WEATHER SERVICE NEWPORT/MOREHEAD CITY NC 800 PM EDT THU APR 28 2016 NOTE: "FAIR" INDICATES FEW OR NO CLOUDS BELOW 12,000 FEET WITH NO SIGNIFICANT WEATHER AND/OR OBSTRUCTIONS TO VISIBILITY NCZ015>017-031-032-045>047-102-103-290100- NORTH COAST CITY SKY/WX TMP DP RH WIND PRES REMARKS EDENTON CLOUDY 69 66 92 E6 29.89R ELIZABETH CITY CLOUDY 63 61 93 NE9 29.90R KITTY HAWK CLOUDY 63 60 91 N3 29.88R MANTEO NOT AVBL $$ NCZ045>047-081-094-103-104-290100- CENTRAL COAST CITY SKY/WX TMP DP RH WIND PRES REMARKS FRISCO CLOUDY 70 67 90 SW12 29.90R SWANQUARTER NOT AVBL $$ NCZ095-097-098-100-101-290100- SOUTHERN COAST CITY SKY/WX TMP DP RH WIND PRES REMARKS BEAUFORT CLOUDY 70 67 90 SW12 29.91R CEDAR ISLAND NOT AVBL JACKSONVILLE CLOUDY 75 62 64 S12 29.89R PINEY ISLAND NOT AVBL WILMINGTON CLEAR 75 65 70 SW12G21 29.91R $$ NCZ011>013-027>030-043-044-078>080-089-090>093-098-290100- COASTAL PLAIN CITY SKY/WX TMP DP RH WIND PRES REMARKS AHOSKIE CLOUDY 70 66 88 CALM 29.88R CLINTON CLOUDY 81 67 63 S5 29.87R ELIZABETHTOWN CLEAR 77 64 65 S7 29.89R GOLDSBORO CLOUDY 75 72 88 SW12 29.83F THUNDER GREENVILLE CLOUDY 79 64 61 CALM 29.87S HAVELOCK CLOUDY 72 64 76 SW12 29.91R KENANSVILLE CLOUDY 80 64 58 CALM 29.89R KINSTON CLOUDY 79 63 57 S7 29.85R NEW BERN CLOUDY 74 63 68 S12 29.89R RICHLANDS CLOUDY 78 64 61 S12 29.89R ROCKY MOUNT LGT RAIN 68 66 93 CALM 29.84S WASHINGTON CLOUDY 73 68 85 E5 29.85R WHITEVILLE CLEAR 76 66 70 S9 29.89R $$ AMZ130-135-150-152-154-156-158-170-250-252-270-ANZ085-086-088-633-658-670-290100- MARINE OBSERVATIONS STATION/POSITION TIME TEMP WIND PRES WAVE SWELL AIR SEA DIR/SP/G HT/PER HT/PER (UTC) (F) (DEG/KT/KT) (MB) (FT/S) (FT/S) CHESAPEAKE LIGHT 0000 54 40/ 13/ 14 1013.9 64 E VA BEACH 2350 55 54 40/ 8/ 10 1012.2 3/ 7 3/ 7 DUCK 2300 59 68 1011.6 2 E DUCK 2311 58 N/A 2/11 OREGON INLET 2300 70 68 1011.5 13E OREGON INLT 2300 61 N/A 3/ 6 2/11 HATTERAS CG 2300 71 69 1012.2 DIAMOND BUOY 2350 73 72 220/ 17/ 19 1012.1 4/ 5 2/10 CAPE LOOKOUT 0000 69 200/ 9/ 11 1012.8 BEAUFORT LAB 2300 70 69 1010.9 30 SE NEW RVR IN 2325 67 N/A 4/ 6 27 SE WRIGHTSVLE 2308 72 69 220/ 14/ 16 1015.7 5 SE WRIGHTSVLE 2308 69 67 220/ 12/ 16 1013.2 225 S CAPE HAT 2350 71 71 180/ 10/ 12 1016.2 2/11 2/11 41 SE CHARLESTON 2350 72 71 190/ 12/ 16 1012.9 3/ 5 2/ 8 $$

USA.gov is the U.S. government's official web portal to all federal, state and local government web resources and services.